Showing default

OOV-CUBE, 60240

Orbit data source: Space-Track

OOV-CUBE, 60240 is a payload satellite owned by TUB (DE) in LEO that was launched on Tue, 09 Jul 2024 UTC via an ARIANE 62 launch vehicle from the French Guiana (FRGUI). Payload-class satellites include a variety of spacecraft equipped with specific instruments for various scientific and technological missions. These include communications satellites like Starlink; space stations such as the ISS; scientific satellites like the Hubble; Earth observation satellites from companies like Planet Labs, Umbra, and HawkEye 360; GPS; miniature CubeSats for education and research; and military/defense satellites.

Loading next visibility...
Identifier
60240, 2024-128F
Orbit
LEO
Last TLE update
10 hours ago
Origin
Manufacturer
TUB
Mission
Operational Amateur Technology
Bus & Motor
TUBSAT, Unknown motor
Mass
17 kg wet, 17 kg dry
Launch date (UTC)
2024-07-09 (1 year ago)
Launch vehicle
ARIANE 62
Launch site
French Guiana (FRGUI)
Object type
Payload
Rocket body
Debris
Shape & HBR
Box, 0.25 m
Radar Cross Section
0.094 m², Small (<0.1 m²)

Expand to show TLE details & history

TLE from 10 hours ago
0 OOV-CUBE
1 60240U 24128F   25181.85719515  .00001692  00000-0  14669-3 0  9994
2 60240  61.9959   8.4575 0053655  59.2566 301.3792 15.00355690 53354
Epoch: 2025-06-30T20:34Z
TLE epoch observation values (Epoch: 2025-06-30T20:34:21.66Z)
Latitude
-0.00009°
Longitude
140.70622°
Altitude
548.313 km
Speed
7.599 km/s
True Right ascension
00h 33m 49s
True Declination
0° 00' 00"
Sunlit
Object was in daylight at epoch
Visualization orbit readout
Latitude
43.4846°
Longitude
169.39212°
Altitude
534.16 km
Speed
7.621 km/s
Apparent Right ascension
04h 13m 34s
Apparent Declination
4° 16' 38"
Sunlit
Object is in daylight
Visualization observer readout
Local Sidereal Time
18:01:25
Azimuth
35.777° NE
Elevation
-39.334°
Doppler factor
1
Orbital elements
Apogee altitude
601.981 km
Perigee altitude
527.477 km
Semi-major axis
6,942.866 km
Eccentricity
0.00537
Inclination
61.9959°
RAAN
8.4575°
Arg. of periapsis
59.2566°
True anomaly
Unknown
Mean anomaly
301.3792°
Eccentric anomaly
Unknown
Mean motion
3.75176 °/min
Orbital period
95.95 mins
BSTAR
0.00014669
Loading maneuver chart data...
Loading SW <> Apogee altitude chart data...
Loading historical data...
Loading historical data...
Loading historical data...
Loading historical data...
Loading historical data...
Loading historical data...
Loading historical data...

OOV-CUBE Visibility forecast

Observer location: undefined°, undefined°

Span
Click to sort rows by Start time (UTC) header in descending order
Start Az.
Max El. time (UTC)
Max El. Az.
Max El.
End time (UTC)
End Az.
7 mins2025-07-01 14:18:38.871Z208.302° SW2025-07-01 14:21:38.871Z178.57° S42.161°2025-07-01 14:25:38.871Z39.758° NE
6 mins2025-07-01 22:42:38.871Z331.22° NNW2025-07-01 22:44:38.871Z16.612° NNE43.552°2025-07-01 22:48:38.871Z139.07° SSE
|